Waarnemingen

Advertentie
Mijn weer
Angermünde, Duitsland (10291): temperatuur & dauwpunt: 11.01.2019 01:00:00 - 17.01.2019 01:00:00 (CET)Angermünde, Duitsland (10291): temperatuur 5cm & temperatuur -5cm: 11.01.2019 01:00:00 - 17.01.2019 01:00:00 (CET)Angermünde, Duitsland (10291): temperatuur -20cm & temperatuur -100cm: 11.01.2019 01:00:00 - 17.01.2019 01:00:00 (CET)Angermünde, Duitsland (10291): windsnelheid & windstoten: 11.01.2019 01:00:00 - 17.01.2019 01:00:00 (CET)Angermünde, Duitsland (10291): windrichting: 11.01.2019 01:00:00 - 17.01.2019 01:00:00 (CET)Angermünde, Duitsland (10291): luchtdruk: 11.01.2019 01:00:00 - 17.01.2019 01:00:00 (CET)Angermünde, Duitsland (10291): zicht: 11.01.2019 01:00:00 - 17.01.2019 01:00:00 (CET)Angermünde, Duitsland (10291): Zonneschijnduur: 11.01.2019 01:00:00 - 17.01.2019 01:00:00 (CET)Angermünde, Duitsland (10291): neerslag: 11.01.2019 01:00:00 - 17.01.2019 01:00:00 (CET)
Datum & Tijd tt [°C] td [°C] tt 5cm [°C] tt -5cm [°C] tt -20cm [°C] tt -100cm [°C] ff [km/u] ff [kn] fx [km/u] fx [kn] dd ppp [hPa] vv [km] sd [min] rr [mm]
17.01.2019 01:00:00 3,6 0,5 2,6 3,4 4,1 4,9 17 9 30 16 ZZW 999,1 23 0 0,0
17.01.2019 00:00:00 4,4 0,8 3,8 3,7 4,1 4,9 16 9 34 18 ZZW 1000,2 31 0 0,0
16.01.2019 23:00:00 4,8 1,4 4,1 4,0 4,2 4,9 16 9 30 16 ZZW 1001,0 39 0 0,0
16.01.2019 22:00:00 5,3 1,7 4,8 4,2 4,2 4,9 18 10 36 19 ZZW 1001,4 42 0 0,0
16.01.2019 21:00:00 5,7 2,6 5,2 4,4 4,2 4,9 23 12 36 19 ZZW 1002,2 36 0 0,0
16.01.2019 20:00:00 5,7 3,7 5,3 4,5 4,2 4,9 18 10 35 19 ZW 1002,7 36 0 0,0
16.01.2019 19:00:00 6,2 4,0 5,7 4,6 4,3 4,9 18 10 35 19 ZW 1003,1 26 0 0,0
16.01.2019 18:00:00 6,3 4,1 5,8 4,6 4,3 4,9 16 9 32 17 ZW 1003,6 46 0 0,0
16.01.2019 17:00:00 6,4 4,2 5,8 4,7 4,2 4,9 18 10 30 16 ZZW 1004,1 34 0 0,0
16.01.2019 16:00:00 6,3 4,7 5,9 4,9 4,2 4,9 13 7 33 18 ZW 1004,5 26 0 0,0
16.01.2019 15:00:00 6,8 4,4 6,4 4,9 4,2 4,9 16 9 34 18 ZW 1004,9 27 0 0,0
16.01.2019 14:00:00 6,8 4,5 6,5 4,9 4,1 4,9 17 9 37 20 ZW 1005,2 22 0 0,0
16.01.2019 13:00:00 6,2 5,0 5,7 4,8 4,1 4,9 18 10 42 23 ZW 1006,0 12 0 0,0
16.01.2019 12:00:00 6,3 5,0 5,7 4,7 4,0 4,9 17 9 35 19 WZW 1006,3 8 0 0,0
16.01.2019 11:00:00 6,0 5,1 5,4 4,7 4,0 4,9 18 10 33 18 WZW 1006,9 8 0 0,0
16.01.2019 10:00:00 6,2 4,8 5,6 4,6 4,0 4,9 20 11 35 19 WZW 1006,8 8 0 0,0
16.01.2019 09:00:00 6,1 5,1 5,4 4,6 3,9 4,9 22 12 36 19 WZW 1007,0 7 0 0,0
16.01.2019 08:00:00 6,5 5,1 5,9 4,6 3,9 4,9 21 12 35 19 WZW 1006,6 14 0 0,0
16.01.2019 07:00:00 6,7 5,5 5,9 4,7 3,8 4,9 19 10 37 20 WZW 1006,4 18 0 0,0
16.01.2019 06:00:00 6,9 5,7 6,0 4,7 3,8 4,9 18 10 38 20 WZW 1006,4 26 0 0,0
16.01.2019 05:00:00 7,1 6,2 6,3 4,8 3,7 4,9 21 12 45 24 W 1006,3 23 0 0,0
16.01.2019 04:00:00 7,2 6,4 6,4 4,7 3,6 4,9 27 15 42 23 W 1006,0 34 0 0,1
16.01.2019 03:00:00 6,8 6,4 6,2 4,5 3,5 4,9 22 12 35 19 W 1005,7 7 0 0,4
16.01.2019 02:00:00 6,6 6,1 6,0 4,4 3,4 4,9 22 12 32 17 W 1005,2 22 0 0,6
16.01.2019 01:00:00 6,5 6,1 5,9 4,3 3,3 4,9 21 11 32 18 W 1005,3 10 0 0,9
16.01.2019 00:00:00 6,6 6,0 5,9 4,2 3,2 4,9 23 12 34 18 W 1005,4 20 0 0,8
15.01.2019 23:00:00 6,7 5,9 6,0 4,1 3,1 4,9 20 11 36 19 W 1005,4 27 0 0,0
15.01.2019 22:00:00 6,8 5,7 6,0 3,9 2,9 4,9 26 14 43 23 W 1005,1 70 0 0,0
15.01.2019 21:00:00 6,3 5,8 5,6 3,8 2,8 4,9 29 16 52 28 W 1004,2 16 0 0,2
15.01.2019 20:00:00 6,1 5,4 5,4 3,5 2,7 5,0 34 18 53 28 W 1003,7 13 0 0,1
15.01.2019 19:00:00 5,6 5,0 5,0 3,3 2,5 5,0 30 16 51 27 W 1003,7 6 0 0,0
15.01.2019 18:00:00 5,2 4,7 4,6 3,0 2,4 5,0 32 17 47 26 W 1003,8 6 0 0,2
15.01.2019 17:00:00 4,8 4,3 4,3 2,8 2,3 5,0 29 15 48 26 WZW 1004,6 4,3 0 0,4
15.01.2019 16:00:00 4,4 3,7 3,7 2,6 2,2 5,0 24 13 41 22 WZW 1005,3 9 0 0,1
15.01.2019 15:00:00 4,2 3,0 3,7 2,4 2,1 5,0 26 14 43 23 WZW 1006,0 28 0 0,1
15.01.2019 14:00:00 3,8 2,7 3,3 2,1 2,0 5,0 25 13 42 23 WZW 1006,5 25 0 0,0
15.01.2019 13:00:00 3,5 2,4 3,0 1,4 1,9 5,0 22 12 44 24 WZW 1007,4 11 0 0,0
15.01.2019 12:00:00 2,8 1,7 2,2 0,8 1,9 5,0 26 14 45 25 W 1007,5 23 0 0,0
15.01.2019 11:00:00 2,6 1,2 1,8 0,8 1,9 5,0 28 15 42 23 W 1008,0 44 0 0,0
15.01.2019 10:00:00 2,1 0,9 1,3 0,8 2,0 5,0 26 14 46 25 W 1007,8 20 0 0,1
15.01.2019 09:00:00 2,3 0,5 1,1 0,8 2,0 5,0 29 16 47 25 W 1007,6 26 0 0,2
15.01.2019 08:00:00 2,1 0,4 1,0 0,8 2,0 5,0 31 17 47 25 W 1007,5 36 0 0,0
15.01.2019 07:00:00 1,8 0,4 0,7 0,8 2,1 5,0 23 13 36 20 W 1007,8 28 0 0,2
15.01.2019 06:00:00 0,8 0,2 0,1 0,8 2,1 5,0 24 13 46 25 W 1008,4 19 0 0,2
15.01.2019 05:00:00 2,1 -1,5 1,4 0,9 2,1 5,0 26 14 40 22 W 1008,1 40 0 0,0
15.01.2019 04:00:00 1,4 -2,3 0,5 0,9 2,2 5,0 18 10 28 15 W 1008,2 41 0 0,0
15.01.2019 03:00:00 0,6 -2,5 -0,7 0,9 2,2 5,0 21 11 35 19 W 1008,3 40 0 0,0
15.01.2019 02:00:00 0,4 -3,1 -1,0 0,9 2,2 5,0 23 13 37 20 W 1007,8 44 0 0,0
15.01.2019 01:00:00 0,4 -3,2 -0,8 0,9 2,3 5,0 18 10 36 20 W 1007,3 47 0 0,0
15.01.2019 00:00:00 0,5 -3,3 -0,4 1,0 2,3 5,0 28 15 46 25 W 1007,0 39 0 0,0
14.01.2019 23:00:00 0,8 -3,3 0,0 1,0 2,4 5,0 27 14 45 24 W 1006,7 40 0 0,0
14.01.2019 22:00:00 0,4 -3,8 -0,8 1,0 2,4 5,0 32 17 49 26 W 1006,2 46 0 0,0
14.01.2019 21:00:00 0,3 -4,3 -0,9 1,1 2,5 5,0 31 17 45 24 W 1005,7 57 0 0,0
14.01.2019 20:00:00 0,5 -4,6 -0,8 1,1 2,5 5,0 33 18 46 25 W 1005,3 56 0 0,0
14.01.2019 19:00:00 0,8 -5,1 -0,5 1,2 2,6 5,0 32 18 53 28 W 1004,5 64 0 0,0
14.01.2019 18:00:00 0,7 -5,8 -0,8 1,2 2,7 5,0 26 14 47 26 W 1003,9 69 0 0,0
14.01.2019 17:00:00 0,7 -6,1 -0,5 1,3 2,7 5,0 33 18 54 29 WNW 1003,4 70 0 0,0
14.01.2019 16:00:00 1,0 -6,2 -0,1 1,4 2,8 4,9 40 22 56 30 WNW 1002,3 37 30 0,0
14.01.2019 15:00:00 -0,1 -4,2 -0,9 1,4 2,8 4,9 27 14 71 38 NW 1001,0 54 2 0,6
14.01.2019 14:00:00 -1,6 -2,3 -1,4 1,6 2,9 4,9 34 18 50 27 NNW 1000,4 0,3 4 0,1
14.01.2019 13:00:00 2,3 -4,1 2,3 1,5 2,9 4,9 45 24 69 38 WNW 998,5 31 18 0,0
14.01.2019 12:00:00 2,3 -4,4 2,3 1,4 3,0 4,9 37 20 69 37 WNW 997,8 53 29 0,0
14.01.2019 11:00:00 2,1 -5,7 1,9 1,5 3,1 4,9 44 24 65 35 WNW 997,7 26 56 0,0
14.01.2019 10:00:00 1,9 -4,6 1,4 1,6 3,3 4,9 40 22 66 36 WNW 996,8 35 16 0,0
14.01.2019 09:00:00 1,6 -4,3 0,7 1,7 3,4 4,9 35 19 59 32 WNW 996,2 70 0 0,0
14.01.2019 08:00:00 1,9 -3,4 0,9 1,8 3,6 4,9 38 21 59 32 WNW 995,2 53 0 0,0
14.01.2019 07:00:00 2,2 -4,3 1,2 2,1 3,8 4,9 42 23 66 36 NW 994,2 55 0 0,0
14.01.2019 06:00:00 3,0 -1,9 2,3 2,7 3,9 4,9 45 24 66 36 WNW 993,3 10 0 0,0
14.01.2019 05:00:00 3,7 -0,1 3,0 2,9 4,0 4,9 35 19 61 33 WNW 992,2 70 0 0,0
14.01.2019 04:00:00 3,8 0,2 2,9 3,4 4,1 4,9 44 24 62 34 WNW 990,7 69 0 0,0
14.01.2019 03:00:00 4,1 1,9 3,1 3,7 4,2 4,9 35 19 53 28 WNW 989,0 32 0 0,1
14.01.2019 02:00:00 4,1 2,0 3,1 3,8 4,2 4,9 35 19 61 33 WNW 987,6 7 0 0,0
14.01.2019 01:00:00 4,8 1,6 3,4 4,1 4,3 4,9 44 24 60 33 WNW 986,5 32 0 0,3
14.01.2019 00:00:00 5,4 3,4 3,9 4,3 4,3 4,9 31 17 58 31 WNW 985,3 64 0 0,2
13.01.2019 23:00:00 5,9 3,4 5,1 4,4 4,4 4,9 32 18 58 32 WNW 985,2 70 0 0,0
13.01.2019 22:00:00 6,0 3,7 5,2 4,5 4,4 4,8 31 17 54 29 W 984,9 38 0 0,0
13.01.2019 21:00:00 6,2 4,3 5,0 4,7 4,4 4,8 33 18 67 36 W 984,7 70 0 0,2
13.01.2019 20:00:00 6,0 4,6 4,8 5,2 4,4 4,8 32 17 48 26 WNW 984,7 70 0 0,7
13.01.2019 19:00:00 7,5 5,6 6,3 5,3 4,3 4,8 32 17 44 24 W 984,9 70 0 0,2
13.01.2019 18:00:00 7,8 6,3 6,6 5,3 4,3 4,8 25 14 44 24 W 985,8 70 0 0,2
13.01.2019 17:00:00 7,4 7,0 6,8 5,3 4,2 4,8 23 13 44 24 W 987,4 8 0 0,1
13.01.2019 16:00:00 7,1 6,7 6,6 5,2 4,1 4,8 26 14 44 24 W 988,4 10 0 0,1
13.01.2019 15:00:00 6,6 6,1 6,3 5,0 4,0 4,8 25 14 41 22 WZW 989,4 8 0 0,4
13.01.2019 14:00:00 6,2 5,6 5,8 4,9 3,9 4,8 22 12 36 19 WZW 990,9 7 0 0,6
13.01.2019 13:00:00 6,0 5,5 5,8 4,8 3,8 4,8 18 10 34 18 ZW 992,8 4,6 0 0,5
13.01.2019 12:00:00 6,0 5,1 5,5 4,6 3,7 4,8 22 12 36 20 WZW 994,9 12 0 0,5
13.01.2019 11:00:00 5,7 5,1 5,3 4,3 3,6 4,8 21 12 35 19 WZW 996,5 12 0 0,2
13.01.2019 10:00:00 5,4 5,0 5,0 4,0 3,6 4,8 19 11 31 17 WZW 997,8 4,3 0 0,1
13.01.2019 09:00:00 5,5 4,2 5,0 3,8 3,6 4,8 24 13 37 20 W 998,7 69 0 0,0
13.01.2019 08:00:00 5,0 4,3 4,4 3,6 3,6 4,8 22 12 36 19 W 999,2 70 0 0,0
13.01.2019 07:00:00 4,8 4,1 4,2 3,7 3,6 4,8 18 10 32 18 W 999,7 17 0 0,0
13.01.2019 06:00:00 4,8 4,0 4,1 3,8 3,6 4,8 14 8 36 19 W 1000,0 51 0 0,0
13.01.2019 05:00:00 4,9 4,0 4,2 3,8 3,6 4,8 18 10 35 19 W 1000,6 19 0 0,0
13.01.2019 04:00:00 4,9 4,2 4,3 3,8 3,6 4,8 22 12 39 21 W 1000,6 27 0 0,0
13.01.2019 03:00:00 5,2 4,2 4,5 3,8 3,5 4,8 22 12 33 18 W 1000,6 70 0 0,0
13.01.2019 02:00:00 5,1 4,4 4,4 3,8 3,5 4,8 18 10 33 18 W 1000,7 60 0 0,0
13.01.2019 01:00:00 5,1 4,5 4,3 3,9 3,5 4,8 21 11 43 23 W 1000,6 28 0 1,4
13.01.2019 00:00:00 5,4 4,5 4,7 3,8 3,5 4,8 23 12 42 23 WZW 1000,9 34 0 0,2
12.01.2019 23:00:00 5,3 4,2 4,3 3,8 3,5 4,8 26 14 39 21 W 1001,4 62 0 0,1
12.01.2019 22:00:00 5,3 4,2 4,4 3,8 3,4 4,8 24 13 36 19 WZW 1001,9 21 0 0,0
12.01.2019 21:00:00 5,3 4,4 4,6 3,8 3,4 4,8 19 11 35 19 W 1002,4 45 0 0,0
12.01.2019 20:00:00 5,3 4,7 4,5 3,8 3,4 4,8 21 11 34 18 W 1002,6 23 0 0,1
12.01.2019 19:00:00 4,9 4,4 4,4 3,7 3,4 4,8 21 11 41 22 WZW 1003,0 8 0 0,4
12.01.2019 18:00:00 4,8 4,1 4,2 3,7 3,3 4,8 22 12 37 20 WZW 1003,6 22 0 0,2
12.01.2019 17:00:00 4,6 3,9 4,1 3,8 3,3 4,8 21 11 38 20 WZW 1004,6 17 0 0,4
12.01.2019 16:00:00 5,1 3,7 4,2 4,0 3,2 4,8 24 13 41 22 WZW 1005,7 12 0 0,2
12.01.2019 15:00:00 5,5 3,7 5,1 4,1 3,1 4,8 26 14 39 21 WZW 1006,8 55 0 0,0
12.01.2019 14:00:00 5,6 4,0 5,0 4,1 3,0 4,9 22 12 37 20 W 1007,8 70 0 0,0
12.01.2019 13:00:00 5,9 3,9 5,8 3,8 2,9 4,9 20 11 36 19 W 1008,9 51 0 0,0
12.01.2019 12:00:00 5,3 3,9 5,6 3,4 2,8 4,9 21 11 30 16 WZW 1010,1 30 0 0,0
12.01.2019 11:00:00 4,6 2,5 4,7 2,9 2,7 4,9 19 10 29 16 WZW 1011,0 22 0 0,0
12.01.2019 10:00:00 4,1 1,7 4,0 2,6 2,7 4,9 15 8 24 13 WZW 1011,9 19 0 0,0
12.01.2019 09:00:00 3,6 1,8 3,2 2,4 2,7 4,9 15 8 25 13 WZW 1012,6 16 0 0,0
12.01.2019 08:00:00 3,2 1,8 2,8 2,4 2,7 4,9 16 9 26 14 WZW 1012,8 13 0 0,0
12.01.2019 07:00:00 3,1 1,6 2,7 2,5 2,7 4,9 17 9 26 14 W 1012,8 14 0 0,0
12.01.2019 06:00:00 3,1 1,6 2,7 2,6 2,7 4,9 15 8 28 15 W 1012,8 15 0 0,0
12.01.2019 05:00:00 3,3 1,7 3,0 2,7 2,7 4,9 24 13 34 18 W 1013,2 15 0 0,0
12.01.2019 04:00:00 3,4 1,9 3,1 2,7 2,7 4,9 16 9 29 16 WNW 1013,5 15 0 0,0
12.01.2019 03:00:00 3,7 2,2 3,4 2,8 2,7 4,9 19 10 37 20 WNW 1013,5 15 0 0,0
12.01.2019 02:00:00 3,9 2,4 3,6 2,9 2,7 4,9 25 13 37 20 WNW 1013,1 15 0 0,0
12.01.2019 01:00:00 4,1 2,6 3,8 2,9 2,6 4,9 17 9 32 17 NW 1012,7 15 0 0,0
12.01.2019 00:00:00 4,3 2,7 4,0 2,9 2,6 4,9 23 13 36 19 WNW 1012,3 15 0 0,0
11.01.2019 23:00:00 4,7 2,9 4,3 3,0 2,5 4,9 27 15 35 19 NW 1012,0 17 0 0,0
11.01.2019 22:00:00 4,9 3,3 4,5 3,0 2,4 4,9 22 12 32 17 NW 1011,6 17 0 0,0
11.01.2019 21:00:00 5,2 4,0 4,5 2,9 2,3 5,0 19 10 27 15 W 1011,3 25 0 0,0
11.01.2019 20:00:00 5,3 4,2 4,5 2,8 2,2 5,0 18 10 25 13 W 1011,3 35 0 0,0
11.01.2019 19:00:00 5,1 4,5 4,4 2,6 2,1 5,0 14 8 24 13 W 1011,1 28 0 0,0
11.01.2019 18:00:00 4,8 4,5 4,2 2,4 2,0 5,0 15 8 26 14 W 1010,8 19 0 0,0
11.01.2019 17:00:00 4,3 4,1 3,9 2,1 1,8 5,0 18 10 30 16 WZW 1011,0 6 0 0,0
11.01.2019 16:00:00 3,6 3,4 3,3 1,8 1,7 5,0 19 11 34 18 WZW 1011,6 8 0 0,0
11.01.2019 15:00:00 3,0 2,8 2,8 1,2 1,7 5,0 21 11 36 19 WZW 1011,8 6 0 0,0
11.01.2019 14:00:00 2,4 2,1 2,2 0,7 1,7 5,0 23 12 38 20 WZW 1012,4 6 0 0,0
11.01.2019 13:00:00 1,7 1,3 1,5 0,7 1,8 5,0 21 11 35 19 WZW 1013,3 12 0 0,0
11.01.2019 12:00:00 1,3 1,0 0,9 0,7 1,8 5,0 18 10 33 18 WZW 1014,6 7 0 0,0
11.01.2019 11:00:00 0,8 0,5 0,6 0,8 1,8 5,0 14 8 33 18 ZW 1015,4 9 0 0,0
11.01.2019 10:00:00 0,6 0,4 0,3 0,8 1,8 5,0 18 10 32 18 ZW 1016,0 2,5 0 0,1
11.01.2019 09:00:00 0,5 0,0 0,1 0,8 1,8 5,0 17 9 30 16 ZW 1017,0 7 0 0,1
11.01.2019 08:00:00 0,2 -0,5 0,0 0,8 1,9 5,0 13 7 28 15 ZW 1017,6 5 0 0,0
11.01.2019 07:00:00 0,0 -0,8 -0,2 0,8 1,9 5,0 15 8 27 14 ZW 1018,0 10 0 0,0
11.01.2019 06:00:00 -0,1 -1,3 -0,3 0,8 1,9 5,0 12 6 23 13 ZW 1018,8 17 0 0,0
11.01.2019 05:00:00 -0,1 -1,6 -0,3 0,8 1,9 5,0 13 7 24 13 ZW 1019,7 17 0 0,0
11.01.2019 04:00:00 -0,2 -1,8 -0,4 0,8 2,0 5,0 11 6 18 10 ZW 1020,6 21 0 0,0
11.01.2019 03:00:00 -0,1 -1,9 -0,4 0,8 2,0 5,0 9 5 18 10 ZW 1021,6 31 0 0,0
11.01.2019 02:00:00 -0,2 -2,0 -0,5 0,9 2,0 5,0 11 6 20 11 WZW 1022,1 44 0 0,0
11.01.2019 01:00:00 -0,3 -2,3 -0,6 0,9 2,1 5,0 8 4 16 8 ZW 1022,5 59 0 0,0

tt = temperatuur
td = dauwpunt
tt 5cm = temperatuur 5cm
tt -5cm = temperatuur -5cm
tt -20cm = temperatuur -20cm
tt -100cm = temperatuur -100cm
ff = windsnelheid
fx = windstoten
dd = windrichting
ppp = luchtdruk
vv = zicht
sd = Zonneschijnduur
rr = neerslag

Weerstations in de omgeving